User: anonymous   Login
Location: Unspecified
(0.0000°N, 0.0000°E)
Time: 13:51:12
(UTC+01:00)
Language:

PSLV R/B - Orbit

View from above orbital plane
View from above orbital plane
View from above satellite
View from above satellite

Ground track
Ground track

The orbit data is extracted from the following two-line orbital elements,

1 29713U 07001E   14303.08866556  .00003726  00000-0  46175-3 0  4703
2 29713 097.6575 291.7457 0026507 015.6464 344.5563 14.83015963421483
Epoch (UTC): 30 October 2014 02:07:40
Eccentricity: 0.0026507
inclination: 97.6575°
perigee height: 601 km
apogee height: 638 km
right ascension of ascending node: 291.7457°
argument of perigee: 15.6464°
revolutions per day: 14.83015963
mean anomaly at epoch: 344.5563°
orbit number at epoch: 42148

The dashed part of the orbit path shows where the satellite is in the earth's shadow,  

DLR